Regional Weather Roundup
Issued by NWS

Home | Current Version | Previous Version | Graphics & Text | Print | Product List | Glossary On
Versions: 1 2 3 4 5 6 7 8 9 10 11 12 13 14 15 16 17 18 19 20 21 22 23 24 25 26 27 28 29 30 31 32 33 34 35 36 37 38 39 40 41 42 43 44 45 46 47 48 49 50
588
ASUS43 KMKX 131510
RWRWI

WISCONSIN REGIONAL WEATHER ROUNDUP
NATIONAL WEATHER SERVICE MILWAUKEE/SULLIVAN WI
900 AM CST WED DEC 13 2017

NOTE: "FAIR" INDICATES FEW OR NO CLOUDS BELOW 12,000 FEET WITH NO
SIGNIFICANT WEATHER AND/OR OBSTRUCTIONS TO VISIBILITY.

WIZ001-002-006>008-014>016-023>028-131600-
NORTHWEST WISCONSIN

CITY           SKY/WX    TMP DP  RH WIND       PRES   REMARKS
SUPERIOR ARPT  CLOUDY    20  18  90 E7        29.51S WCI  11
ASHLAND        SNOW      16  13  88 NE8       29.52F VSB 1/2 WCI   5
HAYWARD        SNOW      17  12  80 NE7       29.45R VSB 1/2 WCI   8
SIREN          CLOUDY    19  16  88 N8        29.46R FOG     WCI   9
CUMBERLAND     SNOW      19  18  93 N6        29.42R VSB 1/2 WCI  11
RICE LAKE      LGT SNOW  21  19  92 N7        29.44R WCI  12
CHETEK         CLOUDY    20  18  90 NE3       29.42R
LADYSMITH      LGT SNOW  18  15  87 NE9       29.44R WCI   7
EAU CLAIRE     CLOUDY    22  15  75 N8        29.39R WCI  12
MENOMONIE      PTSUNNY   23  18  80 N10       29.41R WCI  13
NEW RICHMOND   LGT SNOW  21  18  86 N10       29.42R WCI  10
OSCEOLA        CLOUDY    23  20  90 N7        29.48R WCI  14
$$

WIZ003>005-009-010-017-018-131600-
NORTH CENTRAL WISCONSIN

CITY           SKY/WX    TMP DP  RH WIND       PRES   REMARKS
MANITOWISH WTR SNOW      10   9  92 E7        29.46R VSB 1/2 WCI   0
ARBOR VITAE    SNOW      13   9  87 E7        29.44F VSB 1/2 WCI   2
WOODRUFF       SNOW      13   9  87 E7        29.44F VSB 1/2 WCI   2
RHINELANDER    SNOW      11   9  92 E14       29.44S VSB 1/4 WCI  -5
EAGLE RIVER    SNOW      11   7  83 E9G17     29.46S VSB 1/4 WCI  -2
LAND O LAKES   LGT SNOW  11   8  85 E6        29.49S VSB 3/4 WCI   2
PHILLIPS       SNOW      13  11  91 E8        29.42R VSB 1/2 WCI   1
TOMAHAWK       SNOW      12   9  88 NE5       29.43S VSB 1/2 WCI   4
MEDFORD        CLOUDY    15  11  85 E12G17    29.37R WCI   2
MERRILL        FLURRIES  13   9  84 E8        29.42F WCI   2
$$

WIZ029-030-035-036-043>047-131600-
CENTRAL WISCONSIN

CITY           SKY/WX    TMP DP  RH WIND       PRES   REMARKS
WAUSAU         MIX PCPN  14  10  84 E10       29.39F WCI   1
MOSINEE        CLOUDY    16  12  86 E12G20    29.40F WCI   3
MARSHFIELD     CLOUDY    17  13  84 E13       29.36F WCI   4
STEVENS POINT  CLOUDY    15  13  91 E15       29.40F WCI  -1
WAUPACA        CLOUDY    21  16  82 NE5       29.44F WCI  15
WAUTOMA        CLOUDY    20  16  84 NE12      29.40F WCI   8
WISC RAPIDS    CLOUDY    18  14  84 E13       29.39F WCI   5
CAMP DOUGLAS   CLOUDY    25  18  74 E5        29.34F WCI  19
$$

WIZ011>013-019>022-031-037>040-048>050-131600-
NORTHEAST WISCONSIN

CITY           SKY/WX    TMP DP  RH WIND       PRES   REMARKS
ANTIGO         LGT SNOW  12   9  88 E17       29.41F VSB 3/4 WCI  -5
SHAWANO        LGT SNOW  19  17  88 E9        29.48F WCI   9
OCONTO         CLOUDY    23  21  92 E8        29.52F VSB 1/2 WCI  14
STURGEON BAY   SNOW      24  22  91 SE8       29.54F VSB 1/2 WCI  15
GREEN BAY      LGT SNOW  25  21  85 E10       29.48F FOG     WCI  15
MANITOWOC      FLURRIES  30  28  93 SE17      29.48F WCI  18
APPLETON       CLOUDY    23  18  80 E8        29.43F WCI  14
CLINTONVILLE   NOT AVBL
OSHKOSH        CLOUDY    23  18  81 E10       29.43F WCI  12
$$

WIZ032>034-041-042-053>061-131600-
SOUTHWEST WISCONSIN

CITY           SKY/WX    TMP DP  RH WIND       PRES   REMARKS
LA CROSSE      CLOUDY    31  23  72 E3        29.33S
SPARTA         CLOUDY    28  21  76 NE6       29.36R WCI  21
VIROQUA        MOSUNNY   27  23  87 SE5       29.30F WCI  21
BOSCOBEL       CLOUDY    31  22  69 S5        29.33F WCI  26
PRAIRIE DU CHI PTSUNNY   32  23  68 CALM      29.31F
PLATTEVILLE    CLOUDY    29  23  78 S13       29.33F WCI  19
$$

WIZ056-057-062-063-064-067-068-131600-
SOUTH CENTRAL WISCONSIN

CITY           SKY/WX    TMP DP  RH WIND       PRES   REMARKS
REEDSBURG      CLOUDY    27  19  71 CALM      29.34F
BARABOO/DELLS  CLOUDY    28  19  69 S8        29.34F WCI  19
LONE ROCK      CLOUDY    29  21  72 CALM      29.34F
MINERAL POINT  CLOUDY    30  23  74 S9        29.32F WCI  22
MADISON        CLOUDY    28  19  69 S14       29.35F WCI  17
MIDDLETON      CLOUDY    30  21  68 S9        29.34F WCI  21
WATERTOWN      CLOUDY    28  21  74 S13       29.37F WCI  18
MONROE         CLOUDY    28  21  74 S18G24    29.35F WCI  16
JANESVILLE     CLOUDY    30  19  64 S16G22    29.38F WCI  19
$$

WIZ051-052-058>065-066-070>072-131600-
SOUTHEAST WISCONSIN

CITY           SKY/WX    TMP DP  RH WIND       PRES   REMARKS
MILWAUKEE      CLOUDY    29  18  63 SE15      29.41F WCI  18
WAUKESHA       CLOUDY    23  16  74 SE14      29.41F WCI  11
MILWAUKEE/TIMM CLOUDY    25  14  63 S15G23    29.42F WCI  12
RACINE         CLOUDY    30  20  66 S16G30    29.45F WCI  19
BURLINGTON       N/A    N/A N/A N/A MISG        N/A
KENOSHA        CLOUDY    30  17  58 S17G24    29.42F WCI  18
FOND DU LAC    CLOUDY    24  17  74 SE10      29.41F WCI  14
SHEBOYGAN      CLOUDY    28  25  88 SE10      29.45F WCI  19
WEST BEND      CLOUDY    25  19  80 SE5       29.42F WCI  19
JUNEAU         CLOUDY    25  18  74 SE10      29.39F WCI  15
$$

LSZ147-162-131600-
LAKE SUPERIOR

STATION/POSITION TIME  TEMP    WIND        PRES    WAVE
                       AIR SEA DIR/SP/G            HT/PER
                 (UTC) (F)     (DEG/KT/KT) (MB)    (FT/S)
DEVILS ISLAND    1500   21      90/ 22/ 26 1001.7R
SAXON HARBOR     1430   18                 1000.0R
$$

LMZ867-665-643>646-131600-
LAKE MICHIGAN

STATION/POSITION TIME  TEMP    WIND        PRES    WAVE
                       AIR SEA DIR/SP/G            HT/PER
                 (UTC) (F)     (DEG/KT/KT) (MB)    (FT/S)
NORTHPORT PIER   1443   25     140/ 18/ 24 1002.4F
KEWAUNEE LAKESHO 1448   28     130/ 16/ 22  999.2F
SHEBOYGAN LAKESH 1500   31     160/ 23/ 26  998.2F
PORT WASHINGTON  1440   32     180/ 19/ 27  998.6F
MILWAUKEE LAKESH 1450   30     170/ 21/ 25   N/A
KENOSHA   LAKESH 1500   31     170/ 29/ 34  995.9
$$

TC  - TEMPERATURE IN CELSIUS
VSB - VISIBILITY IN STATUTE MILES
WCI - WIND CHILL INDEX
HX  - HEAT INDEX





USA.gov is the U.S. government's official web portal to all federal, state and local government web resources and services.